Powrót do katalogu

COSMOS 1823 DEB

AktywnyLEO
NORAD 39820·DEBRIS·🇷🇺 Russia

Wystrzelony Feb 20, 1987 z Plesetsk Cosmodrome

Loading…

Następne Przeloty (najbliższe 24 godziny)

TLE

Starzejące sięSource: Space-Track

Epoka: Sep 9, 2026, 07:04 UTC

1 39820U 87020EU  26252.29448330  .00000072  00000-0  62346-3 0  9992
2 39820  73.6309 223.5860 0026391 322.5807 104.0208 12.45776379557751

Śledź COSMOS 1823 DEB w czasie rzeczywistym z AllMySat

Download on the App Store